Tracking 23610 objects as of 20-Sep-2021
HD Live streaming from Space Station
objects crossing your sky now

METEOR M2-2

Track METEOR M2-2 now!
10-day predictions
METEOR M2-2 is classified as:


NORAD ID: 44387
Int'l Code: 2019-038A
Perigee: 818.9 km
Apogee: 821.2 km
Inclination: 98.7 °
Period: 101.1 minutes
Semi major axis: 7191 km
RCS: Unknown
Launch date: July 5, 2019
Source: Commonwealth of Independent States (former USSR) (CIS)
Launch site: VOSTOCHNY COSMODROME (VOSTO)
aabbcc
Your satellite tracking list
Your tracking list is empty




NASA's NSSDC Master Catalog

Two Line Element Set (TLE):
1 44387U 19038A   21263.13894711 -.00000016  00000-0  12141-4 0  9996
2 44387  98.6795 221.6927 0001605  22.0306 338.0944 14.23691180114941
Source of the keplerian elements: AFSPC